Time,TemperatureF,DewpointF,PressureIn,WindDirection,WindDirectionDegrees,WindSpeedMPH,WindSpeedGustMPH,Humidity,HourlyPrecipIn,Conditions,Clouds,dailyrainin,SoftwareType,DateUTC
2013-05-30 00:00:00,76.0,72.5,30.06,SE,128,0.0,0.0,89,0.00,,---,0.00,VWS V14.01,2013-05-30 04:00:00,
2013-05-30 00:01:00,75.8,72.3,30.06,SE,128,0.0,0.0,89,0.00,,---,0.00,VWS V14.01,2013-05-30 04:01:00,
2013-05-30 00:06:00,75.8,72.7,30.06,SE,127,0.0,0.0,90,0.00,,---,0.00,VWS V14.01,2013-05-30 04:06:00,
2013-05-30 00:11:00,75.8,72.7,30.06,SE,127,0.0,0.0,90,0.00,,---,0.00,VWS V14.01,2013-05-30 04:11:00,
2013-05-30 00:16:00,75.8,72.7,30.06,SE,127,0.0,0.0,90,0.00,,---,0.00,VWS V14.01,2013-05-30 04:16:00,
2013-05-30 00:21:00,75.8,72.7,30.06,SE,127,0.0,0.0,90,0.00,,---,0.00,VWS V14.01,2013-05-30 04:21:00,
2013-05-30 00:26:00,75.6,72.5,30.06,SE,127,0.0,0.0,90,0.00,,---,0.00,VWS V14.01,2013-05-30 04:26:00,
2013-05-30 00:30:00,75.6,72.5,30.06,SE,126,0.0,0.0,90,0.00,,---,0.00,VWS V14.01,2013-05-30 04:30:00,
2013-05-30 00:31:00,75.6,72.5,30.06,NNW,346,0.0,0.0,90,0.00,,---,0.00,VWS V14.01,2013-05-30 04:31:00,
2013-05-30 00:36:00,75.6,72.5,30.06,ESE,116,0.0,0.0,90,0.00,,---,0.00,VWS V14.01,2013-05-30 04:36:00,
2013-05-30 00:41:00,75.6,72.5,30.06,SSE,147,0.0,1.0,90,0.00,,---,0.00,VWS V14.01,2013-05-30 04:41:00,
2013-05-30 00:46:00,75.6,72.5,30.05,SSE,147,0.0,1.0,90,0.00,,---,0.00,VWS V14.01,2013-05-30 04:46:00,
2013-05-30 00:51:00,75.6,72.5,30.05,WSW,254,0.0,1.0,90,0.00,,---,0.00,VWS V14.01,2013-05-30 04:51:00,
2013-05-30 00:56:00,75.6,72.5,30.05,WSW,254,0.0,1.0,90,0.00,,---,0.00,VWS V14.01,2013-05-30 04:56:00,
2013-05-30 01:00:00,75.4,72.6,30.05,WSW,250,0.0,1.0,91,0.00,,---,0.00,VWS V14.01,2013-05-30 05:00:00,
2013-05-30 01:01:00,75.4,72.3,30.05,WSW,250,0.0,0.0,90,0.00,,---,0.00,VWS V14.01,2013-05-30 05:01:00,
2013-05-30 01:06:00,75.4,72.6,30.05,SW,220,0.0,0.0,91,0.00,,---,0.00,VWS V14.01,2013-05-30 05:06:00,
2013-05-30 01:11:00,75.4,72.6,30.05,South,188,0.0,1.0,91,0.00,,---,0.00,VWS V14.01,2013-05-30 05:11:00,
2013-05-30 01:16:00,75.4,72.6,30.05,South,191,0.0,1.0,91,0.00,,---,0.00,VWS V14.01,2013-05-30 05:16:00,
2013-05-30 01:21:00,75.4,72.6,30.05,South,184,0.0,1.0,91,0.00,,---,0.00,VWS V14.01,2013-05-30 05:21:00,
2013-05-30 01:26:00,75.4,72.6,30.05,South,179,0.0,1.0,91,0.00,,---,0.00,VWS V14.01,2013-05-30 05:26:00,
2013-05-30 01:30:00,75.4,72.6,30.04,South,179,0.0,1.0,91,0.00,,---,0.00,VWS V14.01,2013-05-30 05:30:00,
2013-05-30 01:31:00,75.4,72.6,30.04,South,179,0.0,0.0,91,0.00,,---,0.00,VWS V14.01,2013-05-30 05:31:00,
2013-05-30 01:36:00,75.4,72.6,30.04,South,179,0.0,0.0,91,0.00,,---,0.00,VWS V14.01,2013-05-30 05:36:00,
2013-05-30 01:41:00,75.4,72.6,30.04,ESE,119,0.0,0.0,91,0.00,,---,0.00,VWS V14.01,2013-05-30 05:41:00,
2013-05-30 01:46:00,75.4,72.6,30.04,ESE,119,0.0,0.0,91,0.00,,---,0.00,VWS V14.01,2013-05-30 05:46:00,
2013-05-30 01:51:00,75.4,72.6,30.04,NNW,346,0.0,0.0,91,0.00,,---,0.00,VWS V14.01,2013-05-30 05:51:00,
2013-05-30 01:56:00,75.4,72.6,30.04,NNW,346,0.0,0.0,91,0.00,,---,0.00,VWS V14.01,2013-05-30 05:56:00,
2013-05-30 02:00:00,75.4,72.6,30.03,NNW,346,0.0,0.0,91,0.00,,---,0.00,VWS V14.01,2013-05-30 06:00:00,
2013-05-30 02:01:00,75.4,72.6,30.03,NNW,346,0.0,0.0,91,0.00,,---,0.00,VWS V14.01,2013-05-30 06:01:00,
2013-05-30 02:06:00,75.6,72.8,30.03,North,354,0.0,0.0,91,0.00,,---,0.00,VWS V14.01,2013-05-30 06:06:00,
2013-05-30 02:11:00,75.6,72.8,30.03,North,354,0.0,1.0,91,0.00,,---,0.00,VWS V14.01,2013-05-30 06:11:00,
2013-05-30 02:16:00,75.6,72.8,30.03,North,4,0.0,1.0,91,0.00,,---,0.00,VWS V14.01,2013-05-30 06:16:00,
2013-05-30 02:21:00,75.6,72.8,30.03,ENE,71,0.0,1.0,91,0.00,,---,0.00,VWS V14.01,2013-05-30 06:21:00,
2013-05-30 02:26:00,75.6,72.5,30.03,ENE,71,0.0,1.0,90,0.00,,---,0.00,VWS V14.01,2013-05-30 06:26:00,
2013-05-30 02:30:00,75.6,72.5,30.03,East,79,0.0,1.0,90,0.00,,---,0.00,VWS V14.01,2013-05-30 06:30:00,
2013-05-30 02:31:00,75.6,72.5,30.03,East,79,0.0,0.0,90,0.00,,---,0.00,VWS V14.01,2013-05-30 06:31:00,
2013-05-30 02:36:00,75.6,72.8,30.03,East,79,0.0,1.0,91,0.00,,---,0.00,VWS V14.01,2013-05-30 06:36:00,
2013-05-30 02:41:00,75.6,72.8,30.03,NE,45,0.0,1.0,91,0.00,,---,0.00,VWS V14.01,2013-05-30 06:41:00,
2013-05-30 02:46:00,75.8,73.0,30.02,South,178,0.0,2.0,91,0.00,,---,0.00,VWS V14.01,2013-05-30 06:46:00,
2013-05-30 02:51:00,75.8,73.0,30.02,NW,323,0.0,2.0,91,0.00,,---,0.00,VWS V14.01,2013-05-30 06:51:00,
2013-05-30 02:56:00,75.6,72.8,30.02,SE,124,0.0,2.0,91,0.00,,---,0.00,VWS V14.01,2013-05-30 06:56:00,
2013-05-30 03:00:00,75.6,72.8,30.02,SSE,147,0.0,2.0,91,0.00,,---,0.00,VWS V14.01,2013-05-30 07:00:00,
2013-05-30 03:01:00,75.6,72.8,30.02,SSE,147,0.0,0.0,91,0.00,,---,0.00,VWS V14.01,2013-05-30 07:01:00,
2013-05-30 03:06:00,75.6,72.8,30.02,SSE,147,0.0,0.0,91,0.00,,---,0.00,VWS V14.01,2013-05-30 07:06:00,
2013-05-30 03:11:00,75.8,73.0,30.02,West,275,0.0,0.0,91,0.00,,---,0.00,VWS V14.01,2013-05-30 07:11:00,
2013-05-30 03:16:00,75.8,73.0,30.02,West,275,0.0,0.0,91,0.00,,---,0.00,VWS V14.01,2013-05-30 07:16:00,
2013-05-30 03:21:00,75.6,72.5,30.02,SE,137,0.0,1.0,90,0.00,,---,0.00,VWS V14.01,2013-05-30 07:21:00,
2013-05-30 03:26:00,75.6,72.1,30.02,SE,130,0.0,1.0,89,0.00,,---,0.00,VWS V14.01,2013-05-30 07:26:00,
2013-05-30 03:30:00,75.6,71.8,30.02,West,270,0.0,1.0,88,0.00,,---,0.00,VWS V14.01,2013-05-30 07:30:00,
2013-05-30 03:31:00,75.6,71.8,30.02,SSE,147,0.0,1.0,88,0.00,,---,0.00,VWS V14.01,2013-05-30 07:31:00,
2013-05-30 03:36:00,75.6,71.8,30.02,SE,145,0.0,1.0,88,0.00,,---,0.00,VWS V14.01,2013-05-30 07:36:00,
2013-05-30 03:41:00,75.6,71.8,30.02,SE,145,0.0,1.0,88,0.00,,---,0.00,VWS V14.01,2013-05-30 07:41:00,
2013-05-30 03:46:00,75.8,72.0,30.01,SE,145,0.0,1.0,88,0.00,,---,0.00,VWS V14.01,2013-05-30 07:46:00,
2013-05-30 03:51:00,75.8,72.0,30.01,SE,145,0.0,1.0,88,0.00,,---,0.00,VWS V14.01,2013-05-30 07:51:00,
2013-05-30 03:56:00,75.8,72.0,30.01,SE,145,0.0,1.0,88,0.00,,---,0.00,VWS V14.01,2013-05-30 07:56:00,
2013-05-30 04:00:00,75.8,72.7,30.02,SE,145,0.0,1.0,90,0.00,,---,0.00,VWS V14.01,2013-05-30 08:00:00,
2013-05-30 04:01:00,75.8,72.7,30.02,SE,145,0.0,0.0,90,0.00,,---,0.00,VWS V14.01,2013-05-30 08:01:00,
2013-05-30 04:06:00,75.8,72.7,30.02,SSE,158,0.0,4.0,90,0.00,,---,0.00,VWS V14.01,2013-05-30 08:06:00,
2013-05-30 04:11:00,75.8,72.7,30.02,SE,126,0.0,4.0,90,0.00,,---,0.00,VWS V14.01,2013-05-30 08:11:00,
2013-05-30 04:16:00,75.8,72.7,30.02,ESE,110,0.0,4.0,90,0.00,,---,0.00,VWS V14.01,2013-05-30 08:16:00,
2013-05-30 04:21:00,76.0,73.2,30.02,ESE,110,0.0,4.0,91,0.00,,---,0.00,VWS V14.01,2013-05-30 08:21:00,
2013-05-30 04:26:00,76.0,72.9,30.02,NNW,333,0.0,4.0,90,0.00,,---,0.00,VWS V14.01,2013-05-30 08:26:00,
2013-05-30 04:30:00,75.8,72.7,30.02,ESE,114,0.0,4.0,90,0.00,,---,0.00,VWS V14.01,2013-05-30 08:30:00,
2013-05-30 04:31:00,75.8,72.7,30.02,South,186,1.0,1.0,90,0.00,,---,0.00,VWS V14.01,2013-05-30 08:31:00,
2013-05-30 04:36:00,75.6,72.1,30.02,South,184,0.0,2.0,89,0.00,,---,0.00,VWS V14.01,2013-05-30 08:36:00,
2013-05-30 04:41:00,75.6,72.1,30.02,South,184,0.0,2.0,89,0.00,,---,0.00,VWS V14.01,2013-05-30 08:41:00,
2013-05-30 04:46:00,75.3,71.8,30.03,South,184,0.0,2.0,89,0.00,,---,0.00,VWS V14.01,2013-05-30 08:46:00,
2013-05-30 04:51:00,75.3,71.8,30.03,South,178,0.0,2.0,89,0.00,,---,0.00,VWS V14.01,2013-05-30 08:51:00,
2013-05-30 04:56:00,75.1,71.6,30.03,SE,128,2.0,2.0,89,0.00,,---,0.00,VWS V14.01,2013-05-30 08:56:00,
2013-05-30 05:00:00,75.3,71.8,30.03,SE,128,0.0,2.0,89,0.00,,---,0.00,VWS V14.01,2013-05-30 09:00:00,
2013-05-30 05:01:00,75.1,71.6,30.03,SE,128,0.0,0.0,89,0.00,,---,0.00,VWS V14.01,2013-05-30 09:01:00,
2013-05-30 05:06:00,75.1,71.6,30.03,SE,128,0.0,0.0,89,0.00,,---,0.00,VWS V14.01,2013-05-30 09:06:00,
2013-05-30 05:11:00,75.1,72.0,30.03,SE,128,0.0,0.0,90,0.00,,---,0.00,VWS V14.01,2013-05-30 09:11:00,
2013-05-30 05:16:00,74.9,72.1,30.03,SE,128,0.0,0.0,91,0.00,,---,0.00,VWS V14.01,2013-05-30 09:16:00,
2013-05-30 05:21:00,74.9,72.1,30.03,SE,128,0.0,0.0,91,0.00,,---,0.00,VWS V14.01,2013-05-30 09:21:00,
2013-05-30 05:26:00,74.7,71.9,30.03,SE,128,0.0,0.0,91,0.00,,---,0.00,VWS V14.01,2013-05-30 09:26:00,
2013-05-30 05:30:00,74.7,72.2,30.04,SE,128,0.0,0.0,92,0.00,,---,0.00,VWS V14.01,2013-05-30 09:30:00,
2013-05-30 05:31:00,74.7,72.2,30.04,SE,128,0.0,0.0,92,0.00,,---,0.00,VWS V14.01,2013-05-30 09:31:00,
2013-05-30 05:36:00,74.6,72.1,30.04,SE,128,0.0,0.0,92,0.00,,---,0.00,VWS V14.01,2013-05-30 09:36:00,
2013-05-30 05:41:00,74.6,72.1,30.04,SE,128,0.0,0.0,92,0.00,,---,0.00,VWS V14.01,2013-05-30 09:41:00,
2013-05-30 05:46:00,74.4,71.9,30.04,SE,128,0.0,0.0,92,0.00,,---,0.00,VWS V14.01,2013-05-30 09:46:00,
2013-05-30 05:51:00,74.4,72.2,30.04,SE,128,0.0,0.0,93,0.00,,---,0.00,VWS V14.01,2013-05-30 09:51:00,
2013-05-30 05:56:00,74.4,72.2,30.04,SE,128,0.0,0.0,93,0.00,,---,0.00,VWS V14.01,2013-05-30 09:56:00,
2013-05-30 06:00:00,74.4,72.2,30.05,SE,128,0.0,0.0,93,0.00,,---,0.00,VWS V14.01,2013-05-30 10:00:00,
2013-05-30 06:01:00,74.4,72.2,30.05,SE,128,0.0,0.0,93,0.00,,---,0.00,VWS V14.01,2013-05-30 10:01:00,
2013-05-30 06:06:00,74.4,72.2,30.05,SE,128,0.0,0.0,93,0.00,,---,0.00,VWS V14.01,2013-05-30 10:06:00,
2013-05-30 06:11:00,74.4,72.2,30.05,SE,128,0.0,0.0,93,0.00,,---,0.00,VWS V14.01,2013-05-30 10:11:00,
2013-05-30 06:16:00,74.4,72.2,30.05,SE,128,0.0,0.0,93,0.00,,---,0.00,VWS V14.01,2013-05-30 10:16:00,
2013-05-30 06:21:00,74.4,72.2,30.05,SE,128,0.0,0.0,93,0.00,,---,0.00,VWS V14.01,2013-05-30 10:21:00,
2013-05-30 06:26:00,74.4,72.2,30.05,SE,128,0.0,0.0,93,0.00,,---,0.00,VWS V14.01,2013-05-30 10:26:00,
2013-05-30 06:30:00,74.4,72.2,30.06,SE,128,0.0,0.0,93,0.00,,---,0.00,VWS V14.01,2013-05-30 10:30:00,
2013-05-30 06:31:00,74.4,72.2,30.06,SE,128,0.0,0.0,93,0.00,,---,0.00,VWS V14.01,2013-05-30 10:31:00,
2013-05-30 06:36:00,74.4,72.2,30.06,SE,128,0.0,0.0,93,0.00,,---,0.00,VWS V14.01,2013-05-30 10:36:00,
2013-05-30 06:41:00,74.4,72.2,30.06,SE,128,0.0,0.0,93,0.00,,---,0.00,VWS V14.01,2013-05-30 10:41:00,
2013-05-30 06:46:00,74.4,72.2,30.06,SE,128,0.0,0.0,93,0.00,,---,0.00,VWS V14.01,2013-05-30 10:46:00,
2013-05-30 06:51:00,74.6,72.8,30.06,SE,128,0.0,0.0,94,0.00,,---,0.00,VWS V14.01,2013-05-30 10:51:00,
2013-05-30 06:56:00,74.7,72.6,30.06,SE,128,0.0,0.0,93,0.00,,---,0.00,VWS V14.01,2013-05-30 10:56:00,
2013-05-30 07:00:00,74.7,72.5,30.06,SE,128,0.0,0.0,93,0.00,,---,0.00,VWS V14.01,2013-05-30 11:00:00,
2013-05-30 07:02:00,74.7,72.6,30.06,SE,128,0.0,0.0,93,0.00,,---,0.00,VWS V14.01,2013-05-30 11:02:00,
2013-05-30 07:06:00,74.9,72.7,30.06,SE,127,0.0,0.0,93,0.00,,---,0.00,VWS V14.01,2013-05-30 11:06:00,
2013-05-30 07:11:00,75.1,72.9,30.06,SE,127,0.0,1.0,93,0.00,,---,0.00,VWS V14.01,2013-05-30 11:11:00,
2013-05-30 07:16:00,75.1,72.9,30.07,SE,127,0.0,1.0,93,0.00,,---,0.00,VWS V14.01,2013-05-30 11:16:00,
2013-05-30 07:21:00,75.3,72.8,30.07,SE,127,0.0,1.0,92,0.00,,---,0.00,VWS V14.01,2013-05-30 11:21:00,
2013-05-30 07:26:00,75.4,72.9,30.07,SE,127,0.0,1.0,92,0.00,,---,0.00,VWS V14.01,2013-05-30 11:26:00,
2013-05-30 07:30:00,75.6,72.8,30.07,SE,127,0.0,1.0,91,0.00,,---,0.00,VWS V14.01,2013-05-30 11:30:00,
2013-05-30 07:31:00,75.6,72.8,30.07,SE,127,0.0,0.0,91,0.00,,---,0.00,VWS V14.01,2013-05-30 11:31:00,
2013-05-30 07:37:00,75.8,73.0,30.07,SE,127,0.0,0.0,91,0.00,,---,0.00,VWS V14.01,2013-05-30 11:37:00,
2013-05-30 07:42:00,76.0,72.9,30.07,SE,127,0.0,0.0,90,0.00,,---,0.00,VWS V14.01,2013-05-30 11:42:00,
2013-05-30 07:47:00,76.1,73.0,30.08,ENE,61,0.0,1.0,90,0.00,,---,0.00,VWS V14.01,2013-05-30 11:47:00,
2013-05-30 07:51:00,76.3,72.5,30.08,ESE,116,0.0,1.0,88,0.00,,---,0.00,VWS V14.01,2013-05-30 11:51:00,
2013-05-30 07:57:00,76.5,72.7,30.08,ESE,116,0.0,1.0,88,0.00,,---,0.00,VWS V14.01,2013-05-30 11:57:00,
2013-05-30 08:00:00,76.7,72.9,30.08,WNW,292,0.0,1.0,88,0.00,,---,0.00,VWS V14.01,2013-05-30 12:00:00,
2013-05-30 08:02:00,76.8,73.0,30.08,South,179,0.0,0.0,88,0.00,,---,0.00,VWS V14.01,2013-05-30 12:02:00,
2013-05-30 08:07:00,77.0,73.2,30.08,SE,131,0.0,0.0,88,0.00,,---,0.00,VWS V14.01,2013-05-30 12:07:00,
2013-05-30 08:12:00,77.2,72.7,30.08,SE,131,0.0,0.0,86,0.00,,---,0.00,VWS V14.01,2013-05-30 12:12:00,
2013-05-30 08:17:00,77.6,73.1,30.09,SE,128,0.0,0.0,86,0.00,,---,0.00,VWS V14.01,2013-05-30 12:17:00,
2013-05-30 08:22:00,77.7,72.8,30.09,SE,128,0.0,0.0,85,0.00,,---,0.00,VWS V14.01,2013-05-30 12:22:00,
2013-05-30 08:27:00,77.7,72.8,30.09,SE,128,0.0,0.0,85,0.00,,---,0.00,VWS V14.01,2013-05-30 12:27:00,
2013-05-30 08:30:00,78.1,73.2,30.09,SE,141,0.0,0.0,85,0.00,,---,0.00,VWS V14.01,2013-05-30 12:30:00,
2013-05-30 08:32:00,78.3,73.1,30.09,SE,141,0.0,0.0,84,0.00,,---,0.00,VWS V14.01,2013-05-30 12:32:00,
2013-05-30 08:37:00,78.5,72.9,30.09,SE,143,0.0,3.0,83,0.00,,---,0.00,VWS V14.01,2013-05-30 12:37:00,
2013-05-30 08:42:00,78.6,73.0,30.09,ESE,114,0.0,3.0,83,0.00,,---,0.00,VWS V14.01,2013-05-30 12:42:00,
2013-05-30 08:47:00,79.0,73.0,30.09,SSW,202,0.0,3.0,82,0.00,,---,0.00,VWS V14.01,2013-05-30 12:47:00,
2013-05-30 08:52:00,79.0,72.7,30.09,SE,130,0.0,6.0,81,0.00,,---,0.00,VWS V14.01,2013-05-30 12:52:00,
2013-05-30 08:57:00,79.4,73.1,30.09,SSE,150,0.0,6.0,81,0.00,,---,0.00,VWS V14.01,2013-05-30 12:57:00,
2013-05-30 09:00:00,79.8,73.5,30.09,SSE,154,0.0,6.0,81,0.00,,---,0.00,VWS V14.01,2013-05-30 13:00:00,
2013-05-30 09:02:00,79.8,73.1,30.09,SSE,154,0.0,0.0,80,0.00,,---,0.00,VWS V14.01,2013-05-30 13:02:00,
2013-05-30 09:07:00,80.1,73.0,30.09,NNW,329,0.0,1.0,79,0.00,,---,0.00,VWS V14.01,2013-05-30 13:07:00,
2013-05-30 09:12:00,80.3,73.6,30.09,SE,138,0.0,1.0,80,0.00,,---,0.00,VWS V14.01,2013-05-30 13:12:00,
2013-05-30 09:17:00,81.1,73.6,30.10,North,357,0.0,1.0,78,0.00,,---,0.00,VWS V14.01,2013-05-30 13:17:00,
2013-05-30 09:22:00,81.1,73.6,30.10,ENE,66,0.0,1.0,78,0.00,,---,0.00,VWS V14.01,2013-05-30 13:22:00,
2013-05-30 09:27:00,81.1,72.8,30.10,South,184,1.0,2.0,76,0.00,,---,0.00,VWS V14.01,2013-05-30 13:27:00,
2013-05-30 09:30:00,80.9,73.0,30.09,North,356,0.0,2.0,77,0.00,,---,0.00,VWS V14.01,2013-05-30 13:30:00,
2013-05-30 09:32:00,81.1,73.2,30.09,NNW,335,0.0,0.0,77,0.00,,---,0.00,VWS V14.01,2013-05-30 13:32:00,
2013-05-30 09:37:00,81.1,72.8,30.09,ESE,116,0.0,7.0,76,0.00,,---,0.00,VWS V14.01,2013-05-30 13:37:00,
2013-05-30 09:42:00,81.1,73.2,30.09,NNE,28,0.0,7.0,77,0.00,,---,0.00,VWS V14.01,2013-05-30 13:42:00,
2013-05-30 09:47:00,81.4,73.1,30.10,SSE,161,0.0,7.0,76,0.00,,---,0.00,VWS V14.01,2013-05-30 13:47:00,
2013-05-30 09:52:00,81.6,72.9,30.10,NNW,335,0.0,7.0,75,0.00,,---,0.00,VWS V14.01,2013-05-30 13:52:00,
2013-05-30 09:57:00,81.2,72.9,30.10,WSW,241,0.0,7.0,76,0.00,,---,0.00,VWS V14.01,2013-05-30 13:57:00,
2013-05-30 10:00:00,81.2,73.3,30.09,NNW,335,0.0,7.0,77,0.00,,---,0.00,VWS V14.01,2013-05-30 14:00:00,
2013-05-30 10:02:00,81.8,73.5,30.09,SE,126,0.0,0.0,76,0.00,,---,0.00,VWS V14.01,2013-05-30 14:02:00,
2013-05-30 10:07:00,82.2,74.3,30.09,SSW,210,0.0,2.0,77,0.00,,---,0.00,VWS V14.01,2013-05-30 14:07:00,
2013-05-30 10:12:00,82.2,73.5,30.09,SE,137,0.0,2.0,75,0.00,,---,0.00,VWS V14.01,2013-05-30 14:12:00,
2013-05-30 10:17:00,82.6,73.9,30.09,North,350,0.0,3.0,75,0.00,,---,0.00,VWS V14.01,2013-05-30 14:17:00,
2013-05-30 10:22:00,82.4,73.7,30.09,North,357,0.0,3.0,75,0.00,,---,0.00,VWS V14.01,2013-05-30 14:22:00,
2013-05-30 10:27:00,82.8,74.1,30.09,NW,319,0.0,3.0,75,0.00,,---,0.00,VWS V14.01,2013-05-30 14:27:00,
2013-05-30 10:30:00,83.0,73.1,30.09,NW,311,0.0,5.0,72,0.00,,---,0.00,VWS V14.01,2013-05-30 14:30:00,
2013-05-30 10:32:00,83.0,73.1,30.09,NNW,344,0.0,0.0,72,0.00,,---,0.00,VWS V14.01,2013-05-30 14:32:00,
2013-05-30 10:37:00,82.8,72.4,30.09,North,352,0.0,6.0,71,0.00,,---,0.00,VWS V14.01,2013-05-30 14:37:00,
2013-05-30 10:42:00,83.2,72.8,30.09,North,354,0.0,6.0,71,0.00,,---,0.00,VWS V14.01,2013-05-30 14:42:00,
2013-05-30 10:47:00,83.2,72.8,30.09,NNW,346,0.0,6.0,71,0.00,,---,0.00,VWS V14.01,2013-05-30 14:47:00,
2013-05-30 10:52:00,83.4,72.6,30.09,SSE,167,0.0,6.0,70,0.00,,---,0.00,VWS V14.01,2013-05-30 14:52:00,
2013-05-30 10:57:00,83.4,72.6,30.09,North,353,2.0,6.0,70,0.00,,---,0.00,VWS V14.01,2013-05-30 14:57:00,
2013-05-30 11:00:00,83.4,73.0,30.08,NNW,342,0.0,6.0,71,0.00,,---,0.00,VWS V14.01,2013-05-30 15:00:00,
2013-05-30 11:02:00,83.8,73.0,30.08,North,353,2.0,4.0,70,0.00,,---,0.00,VWS V14.01,2013-05-30 15:02:00,
2013-05-30 11:07:00,83.4,73.0,30.08,North,0,0.0,4.0,71,0.00,,---,0.00,VWS V14.01,2013-05-30 15:07:00,
2013-05-30 11:12:00,83.6,72.8,30.08,SSE,164,0.0,5.0,70,0.00,,---,0.00,VWS V14.01,2013-05-30 15:12:00,
2013-05-30 11:17:00,83.8,73.0,30.08,ESE,113,0.0,5.0,70,0.00,,---,0.00,VWS V14.01,2013-05-30 15:17:00,
2013-05-30 11:22:00,84.1,72.8,30.08,ESE,113,0.0,5.0,69,0.00,,---,0.00,VWS V14.01,2013-05-30 15:22:00,
2013-05-30 11:27:00,84.0,72.7,30.08,SSE,154,0.0,5.0,69,0.00,,---,0.00,VWS V14.01,2013-05-30 15:27:00,
2013-05-30 11:30:00,83.8,73.0,30.08,SE,138,0.0,6.0,70,0.00,,---,0.00,VWS V14.01,2013-05-30 15:30:00,
2013-05-30 11:32:00,83.8,73.0,30.08,NW,308,0.0,0.0,70,0.00,,---,0.00,VWS V14.01,2013-05-30 15:32:00,
2013-05-30 11:37:00,84.3,73.0,30.08,NW,319,0.0,5.0,69,0.00,,---,0.00,VWS V14.01,2013-05-30 15:37:00,
2013-05-30 11:42:00,84.3,72.6,30.08,NNW,339,0.0,7.0,68,0.00,,---,0.00,VWS V14.01,2013-05-30 15:42:00,
2013-05-30 11:47:00,84.7,73.4,30.08,SSW,205,0.0,7.0,69,0.00,,---,0.00,VWS V14.01,2013-05-30 15:47:00,
2013-05-30 11:52:00,84.9,73.2,30.08,SE,130,0.0,7.0,68,0.00,,---,0.00,VWS V14.01,2013-05-30 15:52:00,
2013-05-30 11:57:00,84.7,73.8,30.08,SSE,151,0.0,7.0,70,0.00,,---,0.00,VWS V14.01,2013-05-30 15:57:00,
2013-05-30 12:00:00,84.9,73.6,30.08,SE,133,0.0,7.0,69,0.00,,---,0.00,VWS V14.01,2013-05-30 16:00:00,
2013-05-30 12:02:00,85.1,73.8,30.08,ESE,120,0.0,0.0,69,0.00,,---,0.00,VWS V14.01,2013-05-30 16:02:00,
2013-05-30 12:07:00,85.1,73.4,30.08,ESE,123,0.0,1.0,68,0.00,,---,0.00,VWS V14.01,2013-05-30 16:07:00,
2013-05-30 12:12:00,84.9,73.2,30.08,East,83,1.0,5.0,68,0.00,,---,0.00,VWS V14.01,2013-05-30 16:12:00,
2013-05-30 12:17:00,84.5,73.2,30.08,East,90,0.0,6.0,69,0.00,,---,0.00,VWS V14.01,2013-05-30 16:17:00,
2013-05-30 12:22:00,84.5,72.8,30.08,WNW,299,0.0,6.0,68,0.00,,---,0.00,VWS V14.01,2013-05-30 16:22:00,
2013-05-30 12:27:00,84.1,72.8,30.08,SE,137,0.0,6.0,69,0.00,,---,0.00,VWS V14.01,2013-05-30 16:27:00,
2013-05-30 12:30:00,84.5,73.2,30.08,NE,40,0.0,6.0,69,0.00,,---,0.00,VWS V14.01,2013-05-30 16:30:00,
2013-05-30 12:32:00,84.9,74.0,30.08,SE,133,0.0,1.0,70,0.00,,---,0.00,VWS V14.01,2013-05-30 16:32:00,
2013-05-30 12:38:00,85.1,72.9,30.08,North,357,0.0,2.0,67,0.00,,---,0.00,VWS V14.01,2013-05-30 16:38:00,
2013-05-30 12:43:00,84.9,72.3,30.08,NNW,347,0.0,5.0,66,0.00,,---,0.00,VWS V14.01,2013-05-30 16:43:00,
2013-05-30 12:48:00,84.5,73.7,30.08,SSW,192,0.0,5.0,70,0.00,,---,0.00,VWS V14.01,2013-05-30 16:48:00,
2013-05-30 12:53:00,84.1,72.4,30.08,SSE,150,0.0,5.0,68,0.00,,---,0.00,VWS V14.01,2013-05-30 16:53:00,
2013-05-30 12:58:00,84.3,73.5,30.08,ESE,109,0.0,5.0,70,0.00,,---,0.00,VWS V14.01,2013-05-30 16:58:00,
2013-05-30 13:00:00,84.9,74.0,30.07,North,356,0.0,5.0,70,0.00,,---,0.00,VWS V14.01,2013-05-30 17:00:00,
2013-05-30 13:03:00,84.9,74.0,30.07,SSE,167,0.0,0.0,70,0.00,,---,0.00,VWS V14.01,2013-05-30 17:03:00,
2013-05-30 13:08:00,85.1,74.2,30.07,SSE,147,0.0,0.0,70,0.00,,---,0.00,VWS V14.01,2013-05-30 17:08:00,
2013-05-30 13:13:00,85.3,72.7,30.07,North,0,1.0,1.0,66,0.00,,---,0.00,VWS V14.01,2013-05-30 17:13:00,
2013-05-30 13:18:00,85.1,72.0,30.07,NE,37,0.0,6.0,65,0.00,,---,0.00,VWS V14.01,2013-05-30 17:18:00,
2013-05-30 13:23:00,85.1,72.0,30.07,SE,143,2.0,6.0,65,0.00,,---,0.00,VWS V14.01,2013-05-30 17:23:00,
2013-05-30 13:28:00,85.1,72.9,30.07,North,352,0.0,6.0,67,0.00,,---,0.00,VWS V14.01,2013-05-30 17:28:00,
2013-05-30 13:30:00,85.3,73.1,30.07,SSE,155,0.0,6.0,67,0.00,,---,0.00,VWS V14.01,2013-05-30 17:30:00,
2013-05-30 13:33:00,85.1,72.5,30.07,SE,127,0.0,7.0,66,0.00,,---,0.00,VWS V14.01,2013-05-30 17:33:00,
2013-05-30 13:38:00,85.3,73.1,30.07,North,359,1.0,7.0,67,0.00,,---,0.00,VWS V14.01,2013-05-30 17:38:00,
2013-05-30 13:43:00,85.7,73.9,30.07,North,0,2.0,7.0,68,0.00,,---,0.00,VWS V14.01,2013-05-30 17:43:00,
2013-05-30 13:48:00,85.7,73.0,30.07,SSE,147,0.0,7.0,66,0.00,,---,0.00,VWS V14.01,2013-05-30 17:48:00,
2013-05-30 13:53:00,85.1,73.4,30.07,North,0,0.0,7.0,68,0.00,,---,0.00,VWS V14.01,2013-05-30 17:53:00,
2013-05-30 13:58:00,84.9,72.7,30.07,SE,136,0.0,7.0,67,0.00,,---,0.00,VWS V14.01,2013-05-30 17:58:00,
2013-05-30 14:00:00,84.9,72.7,30.07,North,357,0.0,7.0,67,0.00,,---,0.00,VWS V14.01,2013-05-30 18:00:00,
2013-05-30 14:03:00,84.5,72.3,30.07,East,83,0.0,2.0,67,0.00,,---,0.00,VWS V14.01,2013-05-30 18:03:00,
2013-05-30 14:08:00,84.3,73.0,30.07,SSW,192,0.0,2.0,69,0.00,,---,0.00,VWS V14.01,2013-05-30 18:08:00,
2013-05-30 14:13:00,83.8,72.6,30.07,North,359,0.0,2.0,69,0.00,,---,0.00,VWS V14.01,2013-05-30 18:13:00,
2013-05-30 14:18:00,84.0,73.6,30.07,West,280,0.0,5.0,71,0.00,,---,0.00,VWS V14.01,2013-05-30 18:18:00,
2013-05-30 14:23:00,84.3,73.0,30.07,SE,143,0.0,5.0,69,0.00,,---,0.00,VWS V14.01,2013-05-30 18:23:00,
2013-05-30 14:28:00,84.7,73.8,30.07,SE,140,0.0,5.0,70,0.00,,---,0.00,VWS V14.01,2013-05-30 18:28:00,
2013-05-30 14:30:00,84.5,73.2,30.06,ENE,62,0.0,5.0,69,0.00,,---,0.00,VWS V14.01,2013-05-30 18:30:00,
2013-05-30 14:33:00,84.7,73.8,30.06,NW,320,4.0,5.0,70,0.00,,---,0.00,VWS V14.01,2013-05-30 18:33:00,
2013-05-30 14:38:00,85.3,73.1,30.06,NW,318,5.0,5.0,67,0.00,,---,0.00,VWS V14.01,2013-05-30 18:38:00,
2013-05-30 14:43:00,85.1,73.4,30.06,NNW,347,0.0,5.0,68,0.00,,---,0.00,VWS V14.01,2013-05-30 18:43:00,
2013-05-30 14:48:00,84.7,73.0,30.06,SSE,160,0.0,5.0,68,0.00,,---,0.00,VWS V14.01,2013-05-30 18:48:00,
2013-05-30 14:53:00,84.3,72.6,30.06,North,356,0.0,5.0,68,0.00,,---,0.00,VWS V14.01,2013-05-30 18:53:00,
2013-05-30 14:58:00,84.3,73.5,30.06,ESE,106,0.0,6.0,70,0.00,,---,0.00,VWS V14.01,2013-05-30 18:58:00,
2013-05-30 15:00:00,84.3,73.5,30.06,SE,140,0.0,6.0,70,0.00,,---,0.00,VWS V14.01,2013-05-30 19:00:00,
2013-05-30 15:03:00,84.3,73.5,30.06,SSE,148,0.0,2.0,70,0.00,,---,0.00,VWS V14.01,2013-05-30 19:03:00,
2013-05-30 15:08:00,85.5,73.7,30.06,North,356,0.0,2.0,68,0.00,,---,0.00,VWS V14.01,2013-05-30 19:08:00,
2013-05-30 15:13:00,85.9,74.1,30.06,South,169,0.0,3.0,68,0.00,,---,0.00,VWS V14.01,2013-05-30 19:13:00,
2013-05-30 15:18:00,85.7,73.9,30.05,East,86,0.0,6.0,68,0.00,,---,0.00,VWS V14.01,2013-05-30 19:18:00,
2013-05-30 15:23:00,85.1,73.4,30.05,NNE,20,0.0,6.0,68,0.00,,---,0.00,VWS V14.01,2013-05-30 19:23:00,
2013-05-30 15:28:00,84.7,73.4,30.05,NNW,335,0.0,6.0,69,0.00,,---,0.00,VWS V14.01,2013-05-30 19:28:00,
2013-05-30 15:30:00,84.3,73.0,30.05,NNW,332,0.0,6.0,69,0.00,,---,0.00,VWS V14.01,2013-05-30 19:30:00,
2013-05-30 15:33:00,84.1,73.7,30.05,SE,144,0.0,1.0,71,0.00,,---,0.00,VWS V14.01,2013-05-30 19:33:00,
2013-05-30 15:38:00,84.1,72.8,30.05,North,354,2.0,6.0,69,0.00,,---,0.00,VWS V14.01,2013-05-30 19:38:00,
2013-05-30 15:43:00,84.1,72.8,30.05,East,80,0.0,6.0,69,0.00,,---,0.00,VWS V14.01,2013-05-30 19:43:00,
2013-05-30 15:48:00,84.5,73.7,30.04,NNW,335,1.0,6.0,70,0.00,,---,0.00,VWS V14.01,2013-05-30 19:48:00,
2013-05-30 15:53:00,84.5,73.2,30.04,North,356,0.0,6.0,69,0.00,,---,0.00,VWS V14.01,2013-05-30 19:53:00,
2013-05-30 15:58:00,84.7,73.8,30.04,NNW,332,0.0,6.0,70,0.00,,---,0.00,VWS V14.01,2013-05-30 19:58:00,
2013-05-30 16:00:00,84.7,73.4,30.04,East,99,1.0,6.0,69,0.00,,---,0.00,VWS V14.01,2013-05-30 20:00:00,
2013-05-30 16:03:00,84.5,73.2,30.04,North,0,0.0,3.0,69,0.00,,---,0.00,VWS V14.01,2013-05-30 20:03:00,
2013-05-30 16:08:00,84.5,73.2,30.04,West,275,0.0,4.0,69,0.00,,---,0.00,VWS V14.01,2013-05-30 20:08:00,
2013-05-30 16:13:00,83.6,73.2,30.04,SE,145,0.0,4.0,71,0.00,,---,0.00,VWS V14.01,2013-05-30 20:13:00,
2013-05-30 16:18:00,81.4,71.1,30.04,SE,143,0.0,4.0,71,0.00,,---,0.00,VWS V14.01,2013-05-30 20:18:00,
2013-05-30 16:23:00,80.1,73.0,30.04,SE,131,0.0,4.0,79,0.00,,---,0.00,VWS V14.01,2013-05-30 20:23:00,
2013-05-30 16:28:00,79.8,73.8,30.04,ESE,110,0.0,4.0,82,0.02,,---,0.02,VWS V14.01,2013-05-30 20:28:00,
2013-05-30 16:30:00,79.2,74.7,30.03,SE,141,0.0,4.0,86,0.02,,---,0.02,VWS V14.01,2013-05-30 20:30:00,
2013-05-30 16:33:00,79.2,75.0,30.03,SE,140,0.0,0.0,87,0.02,,---,0.02,VWS V14.01,2013-05-30 20:33:00,
2013-05-30 16:38:00,78.8,74.9,30.03,ENE,65,0.0,0.0,88,0.02,,---,0.02,VWS V14.01,2013-05-30 20:38:00,
2013-05-30 16:43:00,79.2,76.0,30.03,ESE,116,0.0,0.0,90,0.02,,---,0.02,VWS V14.01,2013-05-30 20:43:00,
2013-05-30 16:48:00,79.8,76.3,30.03,NW,305,0.0,0.0,89,0.02,,---,0.02,VWS V14.01,2013-05-30 20:48:00,
2013-05-30 16:53:00,79.8,76.3,30.03,SE,128,2.0,2.0,89,0.02,,---,0.02,VWS V14.01,2013-05-30 20:53:00,
2013-05-30 16:58:00,79.9,75.0,30.03,SSE,150,0.0,2.0,85,0.02,,---,0.02,VWS V14.01,2013-05-30 20:58:00,
2013-05-30 17:00:00,80.1,75.2,30.03,NW,320,0.0,2.0,85,0.02,,---,0.02,VWS V14.01,2013-05-30 21:00:00,
2013-05-30 17:03:00,80.1,75.2,30.03,North,352,2.0,3.0,85,0.02,,---,0.02,VWS V14.01,2013-05-30 21:03:00,
2013-05-30 17:08:00,80.3,74.3,30.03,SE,145,1.0,3.0,82,0.02,,---,0.02,VWS V14.01,2013-05-30 21:08:00,
2013-05-30 17:13:00,80.7,74.3,30.03,SE,128,0.0,3.0,81,0.02,,---,0.02,VWS V14.01,2013-05-30 21:13:00,
2013-05-30 17:18:00,81.1,74.3,30.03,SSE,155,0.0,3.0,80,0.02,,---,0.02,VWS V14.01,2013-05-30 21:18:00,
2013-05-30 17:23:00,81.2,74.4,30.03,SSE,148,0.0,8.0,80,0.02,,---,0.02,VWS V14.01,2013-05-30 21:23:00,
2013-05-30 17:28:00,81.2,74.1,30.03,North,349,0.0,8.0,79,0.02,,---,0.02,VWS V14.01,2013-05-30 21:28:00,
2013-05-30 17:30:00,81.2,74.4,30.02,NNW,330,0.0,8.0,80,0.02,,---,0.02,VWS V14.01,2013-05-30 21:30:00,
2013-05-30 17:33:00,81.4,74.6,30.02,NNW,328,0.0,0.0,80,0.00,,---,0.02,VWS V14.01,2013-05-30 21:33:00,
2013-05-30 17:38:00,81.1,74.0,30.02,South,169,0.0,7.0,79,0.00,,---,0.02,VWS V14.01,2013-05-30 21:38:00,
2013-05-30 17:43:00,80.9,74.2,30.02,SSE,157,1.0,7.0,80,0.00,,---,0.02,VWS V14.01,2013-05-30 21:43:00,
2013-05-30 17:48:00,80.7,74.0,30.02,North,359,0.0,7.0,80,0.00,,---,0.02,VWS V14.01,2013-05-30 21:48:00,
2013-05-30 17:53:00,80.9,74.2,30.02,ENE,73,0.0,7.0,80,0.00,,---,0.02,VWS V14.01,2013-05-30 21:53:00,
2013-05-30 17:58:00,80.9,73.4,30.02,SE,138,0.0,7.0,78,0.00,,---,0.02,VWS V14.01,2013-05-30 21:58:00,
2013-05-30 18:00:00,80.9,73.4,30.02,SE,137,0.0,7.0,78,0.00,,---,0.02,VWS V14.01,2013-05-30 22:00:00,
2013-05-30 18:03:00,80.5,73.0,30.02,SSE,164,0.0,0.0,78,0.00,,---,0.02,VWS V14.01,2013-05-30 22:03:00,
2013-05-30 18:08:00,80.3,73.2,30.02,ESE,107,0.0,0.0,79,0.00,,---,0.02,VWS V14.01,2013-05-30 22:08:00,
2013-05-30 18:13:00,80.1,73.0,30.02,SE,133,0.0,0.0,79,0.00,,---,0.02,VWS V14.01,2013-05-30 22:13:00,
2013-05-30 18:18:00,79.9,73.2,30.02,SSE,147,0.0,0.0,80,0.00,,---,0.02,VWS V14.01,2013-05-30 22:18:00,
2013-05-30 18:23:00,80.1,73.4,30.02,NNW,337,0.0,0.0,80,0.00,,---,0.02,VWS V14.01,2013-05-30 22:23:00,
2013-05-30 18:28:00,79.9,73.2,30.02,ESE,109,0.0,3.0,80,0.00,,---,0.02,VWS V14.01,2013-05-30 22:28:00,
2013-05-30 18:30:00,79.9,73.2,30.02,ESE,113,0.0,3.0,80,0.00,,---,0.02,VWS V14.01,2013-05-30 22:30:00,
2013-05-30 18:33:00,79.9,73.2,30.02,WSW,244,0.0,0.0,80,0.00,,---,0.02,VWS V14.01,2013-05-30 22:33:00,
2013-05-30 18:38:00,79.9,73.2,30.02,ESE,119,0.0,5.0,80,0.00,,---,0.02,VWS V14.01,2013-05-30 22:38:00,
2013-05-30 18:43:00,79.9,73.2,30.02,SSE,160,0.0,5.0,80,0.00,,---,0.02,VWS V14.01,2013-05-30 22:43:00,
2013-05-30 18:48:00,79.8,73.1,30.02,South,182,0.0,5.0,80,0.00,,---,0.02,VWS V14.01,2013-05-30 22:48:00,
2013-05-30 18:53:00,79.6,72.9,30.02,North,0,0.0,5.0,80,0.00,,---,0.02,VWS V14.01,2013-05-30 22:53:00,
2013-05-30 18:58:00,79.4,72.7,30.02,East,86,0.0,5.0,80,0.00,,---,0.02,VWS V14.01,2013-05-30 22:58:00,
2013-05-30 19:00:00,79.4,72.7,30.02,East,86,0.0,5.0,80,0.00,,---,0.02,VWS V14.01,2013-05-30 23:00:00,
2013-05-30 19:03:00,79.4,73.1,30.02,SE,128,0.0,0.0,81,0.00,,---,0.02,VWS V14.01,2013-05-30 23:03:00,
2013-05-30 19:08:00,79.2,72.9,30.02,SE,138,0.0,2.0,81,0.00,,---,0.02,VWS V14.01,2013-05-30 23:08:00,
2013-05-30 19:13:00,79.2,72.9,30.02,SE,124,0.0,2.0,81,0.00,,---,0.02,VWS V14.01,2013-05-30 23:13:00,
2013-05-30 19:18:00,79.2,73.2,30.02,SE,141,0.0,2.0,82,0.00,,---,0.02,VWS V14.01,2013-05-30 23:18:00,
2013-05-30 19:23:00,79.0,73.0,30.02,NNW,328,3.0,3.0,82,0.00,,---,0.02,VWS V14.01,2013-05-30 23:23:00,
2013-05-30 19:29:00,79.0,73.0,30.02,North,0,0.0,3.0,82,0.00,,---,0.02,VWS V14.01,2013-05-30 23:29:00,
2013-05-30 19:30:00,79.0,73.0,30.03,SSE,157,0.0,3.0,82,0.00,,---,0.02,VWS V14.01,2013-05-30 23:30:00,
2013-05-30 19:34:00,78.8,73.2,30.03,SE,133,0.0,1.0,83,0.00,,---,0.02,VWS V14.01,2013-05-30 23:34:00,
2013-05-30 19:39:00,78.6,73.4,30.03,NW,316,0.0,1.0,84,0.00,,---,0.02,VWS V14.01,2013-05-30 23:39:00,
2013-05-30 19:44:00,78.6,73.4,30.03,SSW,199,0.0,1.0,84,0.00,,---,0.02,VWS V14.01,2013-05-30 23:44:00,
2013-05-30 19:49:00,78.5,73.3,30.03,South,184,0.0,1.0,84,0.00,,---,0.02,VWS V14.01,2013-05-30 23:49:00,
2013-05-30 19:54:00,78.3,73.4,30.03,SE,133,0.0,1.0,85,0.00,,---,0.02,VWS V14.01,2013-05-30 23:54:00,
2013-05-30 19:59:00,78.1,73.2,30.03,SSE,151,0.0,1.0,85,0.00,,---,0.02,VWS V14.01,2013-05-30 23:59:00,
2013-05-30 20:00:00,77.9,73.0,30.03,SSE,151,0.0,1.0,85,0.00,,---,0.02,VWS V14.01,2013-05-31 00:00:00,
2013-05-30 20:04:00,77.9,73.0,30.03,SE,140,0.0,0.0,85,0.00,,---,0.02,VWS V14.01,2013-05-31 00:04:00,
2013-05-30 20:09:00,77.7,72.8,30.03,SE,141,0.0,2.0,85,0.00,,---,0.02,VWS V14.01,2013-05-31 00:09:00,
2013-05-30 20:14:00,77.7,72.8,30.03,SSW,208,0.0,2.0,85,0.00,,---,0.02,VWS V14.01,2013-05-31 00:14:00,
2013-05-30 20:19:00,77.7,72.8,30.03,SSW,208,0.0,2.0,85,0.00,,---,0.02,VWS V14.01,2013-05-31 00:19:00,
2013-05-30 20:24:00,77.6,73.1,30.03,NNE,20,0.0,2.0,86,0.00,,---,0.02,VWS V14.01,2013-05-31 00:24:00,
2013-05-30 20:29:00,77.4,72.9,30.03,SE,127,0.0,2.0,86,0.00,,---,0.02,VWS V14.01,2013-05-31 00:29:00,
2013-05-30 20:30:00,77.4,72.9,30.03,SE,126,0.0,2.0,86,0.00,,---,0.02,VWS V14.01,2013-05-31 00:30:00,
2013-05-30 20:34:00,77.4,72.9,30.03,NNW,337,0.0,3.0,86,0.00,,---,0.02,VWS V14.01,2013-05-31 00:34:00,
2013-05-30 20:39:00,77.4,72.9,30.03,NNW,337,0.0,3.0,86,0.00,,---,0.02,VWS V14.01,2013-05-31 00:39:00,
2013-05-30 20:44:00,77.4,72.9,30.03,NNE,20,0.0,3.0,86,0.00,,---,0.02,VWS V14.01,2013-05-31 00:44:00,
2013-05-30 20:49:00,77.4,72.9,30.03,SE,137,0.0,3.0,86,0.00,,---,0.02,VWS V14.01,2013-05-31 00:49:00,
2013-05-30 20:54:00,77.2,72.7,30.03,ESE,112,0.0,3.0,86,0.00,,---,0.02,VWS V14.01,2013-05-31 00:54:00,
2013-05-30 20:59:00,77.2,72.7,30.03,SE,126,0.0,3.0,86,0.00,,---,0.02,VWS V14.01,2013-05-31 00:59:00,
2013-05-30 21:00:00,77.2,72.7,30.03,SE,126,0.0,3.0,86,0.00,,---,0.02,VWS V14.01,2013-05-31 01:00:00,
2013-05-30 21:04:00,77.2,72.7,30.03,SE,126,0.0,0.0,86,0.00,,---,0.02,VWS V14.01,2013-05-31 01:04:00,
2013-05-30 21:09:00,77.2,72.7,30.03,SE,126,0.0,0.0,86,0.00,,---,0.02,VWS V14.01,2013-05-31 01:09:00,
2013-05-30 21:14:00,77.0,72.5,30.03,NW,311,0.0,0.0,86,0.00,,---,0.02,VWS V14.01,2013-05-31 01:14:00,
2013-05-30 21:19:00,77.0,72.5,30.03,NW,311,0.0,0.0,86,0.00,,---,0.02,VWS V14.01,2013-05-31 01:19:00,
2013-05-30 21:24:00,77.0,72.5,30.03,SE,128,0.0,0.0,86,0.00,,---,0.02,VWS V14.01,2013-05-31 01:24:00,
2013-05-30 21:29:00,76.8,72.3,30.03,North,349,0.0,3.0,86,0.00,,---,0.02,VWS V14.01,2013-05-31 01:29:00,
2013-05-30 21:30:00,76.8,72.3,30.04,North,8,0.0,3.0,86,0.00,,---,0.02,VWS V14.01,2013-05-31 01:30:00,
2013-05-30 21:34:00,76.8,72.3,30.04,North,8,0.0,0.0,86,0.00,,---,0.02,VWS V14.01,2013-05-31 01:34:00,
2013-05-30 21:39:00,76.8,72.3,30.04,NNW,343,0.0,0.0,86,0.00,,---,0.02,VWS V14.01,2013-05-31 01:39:00,
2013-05-30 21:44:00,76.8,72.3,30.04,NNE,30,0.0,0.0,86,0.00,,---,0.02,VWS V14.01,2013-05-31 01:44:00,
2013-05-30 21:49:00,76.8,72.3,30.04,NNE,30,0.0,0.0,86,0.00,,---,0.02,VWS V14.01,2013-05-31 01:49:00,
2013-05-30 21:54:00,76.8,72.6,30.04,ENE,73,0.0,0.0,87,0.00,,---,0.02,VWS V14.01,2013-05-31 01:54:00,
2013-05-30 21:59:00,76.8,72.6,30.04,ESE,119,0.0,0.0,87,0.00,,---,0.02,VWS V14.01,2013-05-31 01:59:00,
2013-05-30 22:00:00,76.8,72.6,30.05,ESE,120,0.0,0.0,87,0.00,,---,0.02,VWS V14.01,2013-05-31 02:00:00,
2013-05-30 22:04:00,77.0,72.8,30.05,ESE,121,0.0,0.0,87,0.00,,---,0.02,VWS V14.01,2013-05-31 02:04:00,
2013-05-30 22:09:00,77.0,72.8,30.05,ESE,121,0.0,0.0,87,0.00,,---,0.02,VWS V14.01,2013-05-31 02:09:00,
2013-05-30 22:14:00,76.8,72.6,30.05,ESE,120,0.0,0.0,87,0.00,,---,0.02,VWS V14.01,2013-05-31 02:14:00,
2013-05-30 22:19:00,76.8,72.6,30.05,ESE,120,0.0,0.0,87,0.00,,---,0.02,VWS V14.01,2013-05-31 02:19:00,
2013-05-30 22:24:00,76.5,72.3,30.05,ESE,120,0.0,0.0,87,0.00,,---,0.02,VWS V14.01,2013-05-31 02:24:00,
2013-05-30 22:29:00,76.3,71.8,30.05,ESE,120,0.0,0.0,86,0.00,,---,0.02,VWS V14.01,2013-05-31 02:29:00,
2013-05-30 22:30:00,76.3,71.8,30.05,ESE,120,0.0,0.0,86,0.00,,---,0.02,VWS V14.01,2013-05-31 02:30:00,
2013-05-30 22:34:00,76.1,71.9,30.05,ESE,120,0.0,0.0,87,0.00,,---,0.02,VWS V14.01,2013-05-31 02:34:00,
2013-05-30 22:39:00,76.0,71.9,30.05,ESE,120,0.0,0.0,87,0.00,,---,0.02,VWS V14.01,2013-05-31 02:39:00,
2013-05-30 22:44:00,76.0,71.9,30.05,ESE,120,0.0,0.0,87,0.00,,---,0.02,VWS V14.01,2013-05-31 02:44:00,
2013-05-30 22:49:00,76.0,72.2,30.06,ESE,120,0.0,0.0,88,0.00,,---,0.02,VWS V14.01,2013-05-31 02:49:00,
2013-05-30 22:54:00,76.0,72.5,30.06,SE,143,0.0,0.0,89,0.00,,---,0.02,VWS V14.01,2013-05-31 02:54:00,
2013-05-30 22:59:00,76.0,72.5,30.06,SE,136,0.0,0.0,89,0.00,,---,0.02,VWS V14.01,2013-05-31 02:59:00,
2013-05-30 23:00:00,76.0,72.5,30.06,SE,136,0.0,0.0,89,0.00,,---,0.02,VWS V14.01,2013-05-31 03:00:00,
2013-05-30 23:04:00,76.1,72.6,30.06,ENE,72,0.0,0.0,89,0.00,,---,0.02,VWS V14.01,2013-05-31 03:04:00,
2013-05-30 23:09:00,76.1,72.3,30.06,SE,133,0.0,0.0,88,0.00,,---,0.02,VWS V14.01,2013-05-31 03:09:00,
2013-05-30 23:14:00,76.1,72.3,30.06,SE,133,0.0,0.0,88,0.00,,---,0.02,VWS V14.01,2013-05-31 03:14:00,
2013-05-30 23:19:00,76.1,72.3,30.07,ESE,117,0.0,2.0,88,0.00,,---,0.02,VWS V14.01,2013-05-31 03:19:00,
2013-05-30 23:24:00,76.0,71.9,30.07,ESE,117,0.0,2.0,87,0.00,,---,0.02,VWS V14.01,2013-05-31 03:24:00,
2013-05-30 23:29:00,76.0,71.9,30.07,ESE,117,0.0,2.0,87,0.00,,---,0.02,VWS V14.01,2013-05-31 03:29:00,
2013-05-30 23:30:00,76.0,71.9,30.07,East,99,0.0,2.0,87,0.00,,---,0.02,VWS V14.01,2013-05-31 03:30:00,
2013-05-30 23:34:00,76.0,71.9,30.07,East,99,0.0,0.0,87,0.00,,---,0.02,VWS V14.01,2013-05-31 03:34:00,
2013-05-30 23:39:00,75.8,71.7,30.07,East,99,0.0,0.0,87,0.00,,---,0.02,VWS V14.01,2013-05-31 03:39:00,
2013-05-30 23:44:00,75.8,71.7,30.07,East,99,0.0,0.0,87,0.00,,---,0.02,VWS V14.01,2013-05-31 03:44:00,
2013-05-30 23:49:00,75.8,71.7,30.06,East,99,0.0,0.0,87,0.00,,---,0.02,VWS V14.01,2013-05-31 03:49:00,
2013-05-30 23:54:00,75.8,71.7,30.06,ESE,112,0.0,0.0,87,0.00,,---,0.02,VWS V14.01,2013-05-31 03:54:00,
2013-05-30 23:59:00,75.8,72.0,30.06,ESE,112,0.0,0.0,88,0.00,,---,0.02,VWS V14.01,2013-05-31 03:59:00,